Weather History for Ainsworth, NE

Change the Weather History Date:

Friday, October 14, 2011

  Actual Average Record
Temperature  
Mean Temperature 47 °F -  
Max Temperature 53 °F 61 °F 75 °F (1999)
Min Temperature 41 °F 37 °F 21 °F (2006)
Degree Days  
Heating Degree Days 18    
Moisture  
Dew Point 29 °F    
Average Humidity 50    
Maximum Humidity 70    
Minimum Humidity 28    
Precipitation  
Precipitation 0.00 in - - ()
Sea Level Pressure  
Sea Level Pressure 30.04 in    
Wind  
Wind Speed 10 mph (NW)    
Max Wind Speed 21 mph    
Max Gust Speed 25 mph    
Visibility 10 miles    
Events      
Averages and records for this station are not official NWS values.
T = Trace of Precipitation, MM = Missing Value Source: NWS Daily Summary

Daily Weather History Graph

Daily Weather History Graph

Search for Another Location

Airport:

Trip Planner

Search our weather history database for the weather conditions in past years. The results will help you decide how hot, cold, wet, or windy it might be!

Date:

Astronomy

Oct. 14, 2011 Rise Set
Actual Time 7:51 AM CDT 6:59 PM CDT
Civil Twilight 7:23 AM CDT 7:28 PM CDT
Nautical Twilight 6:50 AM CDT 8:00 PM CDT
Astronomical Twilight 6:17 AM CDT 8:33 PM CDT
Moon 8:09 PM CDT (10/14) 10:26 AM CDT (10/14)
Length of Visible Light 12h 04m
Length of Day
11h 08m
Waning Gibbous, 94% of the Moon is Illuminated
Oct 14
Waning Gibbous
Oct 19
Last Quarter
Oct 26
New
Nov 2
First Quarter
Nov 10
Full

Hourly Weather History & Observations

Time (CDT) Temp. Windchill Dew Point Humidity Pressure Visibility Wind Dir Wind Speed Gust Speed Precip Events Conditions
12:15 AM 42.8 °F 38.0 °F 30.2 °F 61% 29.96 in 10.0 mi WNW 8.1 mph - N/A   Clear
12:35 AM 44.6 °F 40.7 °F 30.2 °F 57% 29.97 in 10.0 mi WNW 6.9 mph - N/A   Clear
12:55 AM 42.8 °F 38.6 °F 30.2 °F 61% 29.97 in 10.0 mi WNW 6.9 mph - N/A   Clear
1:15 AM 42.8 °F 39.3 °F 30.2 °F 61% 29.97 in 10.0 mi WNW 5.8 mph - N/A   Clear
1:35 AM 42.8 °F 40.1 °F 30.2 °F 61% 29.98 in 10.0 mi West 4.6 mph - N/A   Scattered Clouds
1:55 AM 42.8 °F 38.6 °F 30.2 °F 61% 29.98 in 10.0 mi West 6.9 mph - N/A   Mostly Cloudy
2:15 AM 42.8 °F 38.6 °F 30.2 °F 61% 29.98 in 10.0 mi WNW 6.9 mph - N/A   Scattered Clouds
2:35 AM 42.8 °F 38.6 °F 30.2 °F 61% 29.99 in 10.0 mi WNW 6.9 mph - N/A   Clear
2:55 AM 41.0 °F 36.4 °F 30.2 °F 65% 29.99 in 10.0 mi WNW 6.9 mph - N/A   Clear
3:15 AM 41.0 °F 36.4 °F 30.2 °F 65% 29.99 in 10.0 mi WNW 6.9 mph - N/A   Clear
3:35 AM 42.8 °F 39.3 °F 30.2 °F 61% 29.99 in 10.0 mi WNW 5.8 mph - N/A   Clear
3:55 AM 41.0 °F 37.1 °F 30.2 °F 65% 29.99 in 10.0 mi WNW 5.8 mph - N/A   Clear
4:15 AM 41.0 °F 37.1 °F 32.0 °F 70% 29.99 in 10.0 mi WNW 5.8 mph - N/A   Clear
4:35 AM 42.8 °F 38.6 °F 32.0 °F 66% 30.00 in 10.0 mi WNW 6.9 mph - N/A   Clear
4:55 AM 42.8 °F 38.6 °F 32.0 °F 66% 29.99 in 10.0 mi WNW 6.9 mph - N/A   Clear
5:15 AM 44.6 °F 41.4 °F 32.0 °F 61% 29.99 in 10.0 mi WNW 5.8 mph - N/A   Clear
5:35 AM 44.6 °F 40.7 °F 32.0 °F 61% 30.00 in 10.0 mi WNW 6.9 mph - N/A   Scattered Clouds
5:55 AM 44.6 °F 40.2 °F 32.0 °F 61% 30.00 in 10.0 mi WNW 8.1 mph - N/A   Scattered Clouds
6:15 AM 44.6 °F 40.2 °F 32.0 °F 61% 30.01 in 10.0 mi WNW 8.1 mph - N/A   Scattered Clouds
6:35 AM 46.4 °F 41.5 °F 32.0 °F 57% 30.01 in 10.0 mi NW 10.4 mph - N/A   Scattered Clouds
6:55 AM 46.4 °F 41.9 °F 32.0 °F 57% 30.01 in 10.0 mi NW 9.2 mph - N/A   Scattered Clouds
7:15 AM 46.4 °F 41.5 °F 32.0 °F 57% 30.01 in 10.0 mi NW 10.4 mph - N/A   Scattered Clouds
7:35 AM 46.4 °F 40.7 °F 32.0 °F 57% 30.02 in 10.0 mi NW 12.7 mph 16.1 mph N/A   Mostly Cloudy
7:55 AM 46.4 °F 41.5 °F 32.0 °F 57% 30.02 in 10.0 mi NW 10.4 mph - N/A   Mostly Cloudy
8:15 AM 44.6 °F 39.7 °F 32.0 °F 61% 30.03 in 10.0 mi NW 9.2 mph - N/A   Scattered Clouds
8:35 AM 46.4 °F 41.5 °F 32.0 °F 57% 30.03 in 10.0 mi NW 10.4 mph - N/A   Mostly Cloudy
8:55 AM 46.4 °F 41.1 °F 32.0 °F 57% 30.03 in 10.0 mi NW 11.5 mph - N/A   Overcast
9:15 AM 46.4 °F 41.1 °F 32.0 °F 57% 30.04 in 10.0 mi NW 11.5 mph - N/A   Overcast
9:35 AM 46.4 °F 40.4 °F 32.0 °F 57% 30.05 in 10.0 mi NW 13.8 mph - N/A   Overcast
9:55 AM 46.4 °F 41.1 °F 32.0 °F 57% 30.06 in - NW 11.5 mph - N/A   Unknown
10:15 AM 48.2 °F - 32.0 °F 54% 30.07 in 10.0 mi NW 12.7 mph 17.3 mph N/A   Overcast
10:35 AM 50.0 °F - 32.0 °F 50% 30.08 in 10.0 mi NW 13.8 mph - N/A   Overcast
10:55 AM 50.0 °F - 32.0 °F 50% 30.08 in 10.0 mi NW 17.3 mph - N/A   Mostly Cloudy
11:15 AM 50.0 °F - 30.2 °F 47% 30.08 in 10.0 mi NW 13.8 mph - N/A   Mostly Cloudy
11:35 AM 51.8 °F - 30.2 °F 44% 30.09 in 10.0 mi NW 15.0 mph 23.0 mph N/A   Overcast
11:55 AM 51.8 °F - 28.4 °F 41% 30.09 in 10.0 mi NNW 13.8 mph 20.7 mph N/A   Overcast
12:15 PM 51.8 °F - 28.4 °F 41% 30.09 in 10.0 mi NW 12.7 mph 21.9 mph N/A   Overcast
12:35 PM 51.8 °F - 26.6 °F 38% 30.10 in 10.0 mi NNW 17.3 mph 20.7 mph N/A   Overcast
12:55 PM 51.8 °F - 26.6 °F 38% 30.10 in 10.0 mi NW 17.3 mph - N/A   Overcast
1:15 PM 51.8 °F - 28.4 °F 41% 30.09 in 10.0 mi NW 15.0 mph 23.0 mph N/A   Overcast
1:35 PM 51.8 °F - 26.6 °F 38% 30.08 in 10.0 mi NW 16.1 mph 23.0 mph N/A   Overcast
1:55 PM 51.8 °F - 26.6 °F 38% 30.08 in 10.0 mi WNW 15.0 mph 20.7 mph N/A   Overcast
2:15 PM 51.8 °F - 26.6 °F 38% 30.08 in 10.0 mi NW 18.4 mph 24.2 mph N/A   Overcast
2:35 PM 51.8 °F - 26.6 °F 38% 30.07 in 10.0 mi NW 15.0 mph 21.9 mph N/A   Overcast
2:55 PM 53.6 °F - 26.6 °F 35% 30.07 in 10.0 mi NW 17.3 mph 20.7 mph N/A   Overcast
3:15 PM 53.6 °F - 24.8 °F 33% 30.07 in 10.0 mi NW 20.7 mph 25.3 mph N/A   Mostly Cloudy
3:35 PM 51.8 °F - 26.6 °F 38% 30.06 in 10.0 mi WNW 12.7 mph 17.3 mph N/A   Mostly Cloudy
3:55 PM 53.6 °F - 24.8 °F 33% 30.06 in 10.0 mi NW 15.0 mph 20.7 mph N/A   Mostly Cloudy
4:15 PM 53.6 °F - 23.0 °F 30% 30.06 in 10.0 mi NW 17.3 mph 25.3 mph N/A   Overcast
4:35 PM 53.6 °F - 23.0 °F 30% 30.06 in 10.0 mi NW 13.8 mph 18.4 mph N/A   Overcast
4:55 PM 53.6 °F - 23.0 °F 30% 30.06 in 10.0 mi NW 15.0 mph 19.6 mph N/A   Scattered Clouds
5:15 PM 53.6 °F - 21.2 °F 28% 30.06 in 10.0 mi NW 16.1 mph 23.0 mph N/A   Clear
5:35 PM 51.8 °F - 23.0 °F 33% 30.07 in 10.0 mi WNW 12.7 mph - N/A   Mostly Cloudy
5:55 PM 53.6 °F - 23.0 °F 30% 30.07 in 10.0 mi WNW 9.2 mph 18.4 mph N/A   Mostly Cloudy
6:15 PM 51.8 °F - 24.8 °F 35% 30.06 in 10.0 mi WNW 8.1 mph - N/A   Scattered Clouds
6:35 PM 51.8 °F - 23.0 °F 33% 30.07 in 10.0 mi WNW 8.1 mph - N/A   Clear
6:55 PM 50.0 °F - 24.8 °F 37% 30.07 in 10.0 mi West 5.8 mph - N/A   Clear
7:15 PM 48.2 °F - 26.6 °F 43% 30.06 in 10.0 mi WNW 4.6 mph - N/A   Scattered Clouds
7:35 PM 46.4 °F 44.3 °F 26.6 °F 46% 30.07 in 10.0 mi WNW 4.6 mph - N/A   Clear
7:55 PM 46.4 °F 44.3 °F 24.8 °F 43% 30.08 in 10.0 mi WNW 4.6 mph - N/A   Scattered Clouds
8:15 PM 46.4 °F 44.3 °F 24.8 °F 43% 30.08 in 10.0 mi WNW 4.6 mph - N/A   Clear
8:35 PM 42.8 °F 40.1 °F 28.4 °F 57% 30.07 in 10.0 mi WNW 4.6 mph - N/A   Scattered Clouds
8:55 PM 46.4 °F 44.3 °F 26.6 °F 46% 30.07 in 10.0 mi WNW 4.6 mph - N/A   Overcast
9:15 PM 42.8 °F 41.1 °F 30.2 °F 61% 30.07 in 10.0 mi WNW 3.5 mph - N/A   Overcast
9:35 PM 44.6 °F - 28.4 °F 53% 30.06 in 10.0 mi Calm Calm - N/A   Overcast
9:55 PM 41.0 °F 39.0 °F 32.0 °F 70% 30.06 in 10.0 mi SSW 3.5 mph - N/A   Overcast
10:15 PM 42.8 °F - 33.8 °F 70% 30.07 in 10.0 mi Calm Calm - N/A   Overcast
10:35 PM 44.6 °F - 30.2 °F 57% 30.06 in 10.0 mi Calm Calm - N/A   Overcast
10:55 PM 42.8 °F - 33.8 °F 70% 30.05 in 10.0 mi Calm Calm - N/A   Overcast
11:15 PM 42.8 °F 41.1 °F 33.8 °F 70% 30.05 in 10.0 mi WSW 3.5 mph - N/A   Overcast
11:35 PM 42.8 °F 39.3 °F 32.0 °F 66% 30.06 in 10.0 mi SW 5.8 mph - N/A   Mostly Cloudy
11:55 PM 41.0 °F 37.1 °F 32.0 °F 70% 30.05 in 10.0 mi WSW 5.8 mph - N/A   Scattered Clouds